User: anonymous   Login
Location: Caltech
(34.1382°N, 118.1253°W)
Time: 11:09:13
(UTC-07:00)
Language:

CZ-2C R/B - Orbit

View from above orbital plane
View from above orbital plane
View from above satellite
View from above satellite

Ground track
Ground track

The orbit data is extracted from the following two-line orbital elements,

1 28480U 04046B   16148.22186753  .00000057  00000-0  37697-4 0  9998
2 28480  98.1798 263.5129 0140858 283.7865 133.3395 14.25591844599248
Epoch (UTC): 27 May 2016 05:19:29
Eccentricity: 0.0140858
inclination: 98.1798°
perigee height: 705 km
apogee height: 908 km
right ascension of ascending node: 263.5129°
argument of perigee: 283.7865°
revolutions per day: 14.25591844
mean anomaly at epoch: 133.3395°
orbit number at epoch: 59924

The dashed part of the orbit path shows where the satellite is in the earth's shadow,  

DLR